Yuma MCAS, AZ

8:10 PM MST on July 24, 2017 (GMT -0700)
Yuma Marine Corps Air Station

Weather History for KNYL - December, 2012

Change the Weather History Date:

Wednesday, December 26, 2012

  Actual Average Record
Temperature  
Mean Temperature 54 °F 57 °F  
Max Temperature 65 °F 67 °F 80 °F (1980)
Min Temperature 42 °F 46 °F 22 °F (1911)
Degree Days  
Heating Degree Days 11 8  
Month to date heating degree days 148 192  
Since 1 July heating degree days 170 260  
Cooling Degree Days 0 0  
Month to date cooling degree days 19 0  
Year to date cooling degree days 4933 4649  
Growing Degree Days 3 (Base 50)    
Moisture  
Dew Point 23 °F    
Average Humidity 34    
Maximum Humidity 54    
Minimum Humidity 13    
Precipitation  
Precipitation 0.00 in 0.01 in 0.86 in (1927)
Month to date precipitation 0.60 0.42  
Year to date precipitation 2.97 3.47  
Sea Level Pressure  
Sea Level Pressure 29.92 in    
Wind  
Wind Speed 4 mph (WNW)    
Max Wind Speed 13 mph    
Max Gust Speed 15 mph    
Visibility 10 miles    
Events      
T = Trace of Precipitation, MM = Missing Value Source: NWS Daily Summary

Daily Weather History Graph

Daily Weather History Graph

Search for Another Location

Airport or City:

Trip Planner

Search our weather history database for the weather conditions in past years. The results will help you decide how hot, cold, wet, or windy it might be!

Date:

Astronomy

Dec. 26, 2012 Rise Set
Actual Time 7:39 AM MST 5:39 PM MST
Civil Twilight 7:11 AM MST 6:07 PM MST
Nautical Twilight 6:40 AM MST 6:37 PM MST
Astronomical Twilight 6:10 AM MST 7:07 PM MST
Moon 4:35 PM MST (12/26) 6:07 AM MST (12/26)
Length of Visible Light 10h 55m
Length of Day
10h 00m
Waxing Gibbous, 98% of the Moon is Illuminated
Dec 26
Waxing Gibbous
Dec 28
Full
Jan 4
Last Quarter
Jan 11
New
Jan 18
First Quarter

Hourly Weather History & Observations

Time (MST) Temp. Windchill Dew Point Humidity Pressure Visibility Wind Dir Wind Speed Gust Speed Precip Events Conditions
12:55 AM 48.9 °F - 17.1 °F 28% 29.98 in 10.0 mi NNE 5.8 mph - N/A   Scattered Clouds
1:55 AM 46.9 °F - 19.0 °F 33% 29.96 in 10.0 mi North 6.9 mph - N/A   Scattered Clouds
2:55 AM 46.9 °F - 19.0 °F 33% 29.96 in 10.0 mi NNE 5.8 mph - N/A   Clear
3:55 AM 46.0 °F 43.1 °F 19.9 °F 35% 29.93 in 10.0 mi NNE 5.8 mph - N/A   Scattered Clouds
4:55 AM 45.0 °F - 19.9 °F 37% 29.91 in 10.0 mi Calm Calm - N/A   Scattered Clouds
5:55 AM 42.1 °F 40.2 °F 21.9 °F 45% 29.92 in 10.0 mi North 3.5 mph - N/A   Scattered Clouds
6:55 AM 43.0 °F - 23.0 °F 45% 29.92 in 10.0 mi Calm Calm - N/A   Mostly Cloudy
7:55 AM 42.1 °F 40.2 °F 24.1 °F 49% 29.94 in 10.0 mi North 3.5 mph - N/A   Mostly Cloudy
8:55 AM 44.1 °F - 25.0 °F 47% 29.94 in 10.0 mi Calm Calm - N/A   Mostly Cloudy
9:55 AM 48.0 °F - 25.0 °F 41% 29.95 in 10.0 mi ENE 3.5 mph - N/A   Mostly Cloudy
10:55 AM 55.0 °F - 16.0 °F 22% 29.94 in 10.0 mi SE 3.5 mph - N/A   Mostly Cloudy
11:55 AM 57.9 °F - 12.9 °F 17% 29.93 in 10.0 mi Calm Calm - N/A   Scattered Clouds
12:55 PM 61.0 °F - 15.1 °F 17% 29.89 in 10.0 mi SSW 4.6 mph - N/A   Mostly Cloudy
1:55 PM 63.0 °F - 10.9 °F 13% 29.86 in 10.0 mi SSW 6.9 mph - N/A   Mostly Cloudy
2:55 PM 64.9 °F - 12.9 °F 13% 29.86 in 10.0 mi SSW 8.1 mph - N/A   Mostly Cloudy
3:55 PM 64.0 °F - 18.0 °F 17% 29.86 in 10.0 mi WSW 5.8 mph - N/A   Scattered Clouds
4:55 PM 63.0 °F - 23.0 °F 22% 29.87 in 10.0 mi Calm Calm - N/A   Scattered Clouds
5:55 PM 59.0 °F - 25.0 °F 27% 29.87 in 10.0 mi WSW 5.8 mph - N/A   Scattered Clouds
6:55 PM 57.0 °F - 24.1 °F 28% 29.90 in 10.0 mi SSW 5.8 mph - N/A   Partly Cloudy
7:55 PM 55.9 °F - 34.0 °F 44% 29.90 in 10.0 mi West 8.1 mph - N/A   Partly Cloudy
8:55 PM 54.0 °F - 34.0 °F 47% 29.92 in 10.0 mi Calm Calm - N/A   Clear
9:55 PM 53.1 °F - 35.1 °F 50% 29.93 in 10.0 mi Calm Calm - N/A   Partly Cloudy
10:55 PM 52.0 °F - 36.0 °F 54% 29.94 in 10.0 mi West 6.9 mph - N/A   Partly Cloudy
11:55 PM 50.0 °F - 36.0 °F 59% 29.93 in 10.0 mi Calm Calm - N/A   Partly Cloudy